TimeEST,TemperatureF,Dew PointF,Humidity,Sea Level PressureIn,VisibilityMPH,Wind Direction,Wind SpeedMPH,Gust SpeedMPH,PrecipitationIn,Events,Conditions,WindDirDegrees,DateUTC
12:06 AM,46.4,42.8,87,30.24,6.0,North,6.9,-,0.01,Rain,Light Rain,350,2013-01-15 05:06:00
12:40 AM,46.4,42.8,87,30.24,4.0,North,11.5,-,0.04,Rain,Light Rain,350,2013-01-15 05:40:00
12:54 AM,46.0,41.0,83,30.25,5.0,North,8.1,-,0.05,Rain,Light Rain,360,2013-01-15 05:54:00
1:54 AM,45.0,41.0,86,30.25,4.0,North,9.2,-,0.08,Rain,Light Rain,10,2013-01-15 06:54:00
2:54 AM,45.0,41.0,86,30.27,4.0,North,8.1,-,0.04,Rain,Light Rain,360,2013-01-15 07:54:00
3:31 AM,44.6,41.0,87,30.22,6.0,East,10.4,-,0.02,Rain,Light Rain,90,2013-01-15 08:31:00
3:54 AM,45.0,41.0,86,30.22,4.0,East,6.9,-,0.03,Rain,Light Rain,90,2013-01-15 08:54:00
4:54 AM,45.0,41.0,86,30.19,10.0,East,8.1,-,0.02,Rain,Light Rain,90,2013-01-15 09:54:00
5:54 AM,45.0,41.0,86,30.23,10.0,North,6.9,-,0.00,Rain,Light Rain,360,2013-01-15 10:54:00
6:54 AM,45.0,41.0,86,30.22,9.0,NE,4.6,-,0.00,Rain,Light Rain,40,2013-01-15 11:54:00
7:52 AM,44.6,41.0,87,30.25,1.8,NE,5.8,-,0.02,Rain,Light Rain,50,2013-01-15 12:52:00
7:54 AM,44.1,41.0,89,30.26,1.5,NNE,5.8,-,0.02,Rain,Light Rain,20,2013-01-15 12:54:00
8:36 AM,44.6,39.2,81,30.30,2.0,North,9.2,-,0.01,Rain,Light Rain,360,2013-01-15 13:36:00
8:45 AM,44.6,39.2,81,30.29,1.8,NNE,8.1,18.4,0.01,Rain,Light Rain,20,2013-01-15 13:45:00
8:54 AM,43.0,39.0,86,30.30,2.0,NNE,11.5,-,0.01,Rain,Light Rain,30,2013-01-15 13:54:00
9:14 AM,42.8,39.2,87,30.30,3.0,North,8.1,-,0.00,Rain,Light Rain,10,2013-01-15 14:14:00
9:54 AM,43.0,39.0,86,30.31,4.0,North,9.2,-,0.01,Rain,Light Rain,360,2013-01-15 14:54:00
10:22 AM,42.8,39.2,87,30.30,10.0,North,9.2,-,N/A,,Overcast,10,2013-01-15 15:22:00
10:51 AM,42.8,39.2,87,30.28,3.0,NNE,5.8,-,0.00,Rain,Light Rain,20,2013-01-15 15:51:00
10:54 AM,43.0,39.0,86,30.30,4.0,NNE,6.9,-,0.00,Rain,Light Rain,20,2013-01-15 15:54:00
11:54 AM,43.0,39.0,86,30.30,6.0,North,9.2,-,0.04,Rain,Light Rain,360,2013-01-15 16:54:00
12:54 PM,43.0,39.0,86,30.27,6.0,NNE,6.9,-,0.02,Rain,Light Rain,20,2013-01-15 17:54:00
1:54 PM,43.0,39.9,89,30.25,5.0,NE,6.9,-,0.03,Rain,Light Rain,40,2013-01-15 18:54:00
2:54 PM,43.0,39.0,86,30.25,10.0,NE,10.4,-,0.02,,Overcast,50,2013-01-15 19:54:00
3:09 PM,42.8,37.4,81,30.24,9.0,NE,10.4,-,0.00,Rain,Light Rain,40,2013-01-15 20:09:00
3:29 PM,42.8,37.4,81,30.24,8.0,NNE,8.1,-,0.00,Rain,Light Rain,30,2013-01-15 20:29:00
3:43 PM,42.8,37.4,81,30.23,6.0,NE,6.9,-,0.02,Rain,Light Rain,50,2013-01-15 20:43:00
3:50 PM,42.8,37.4,81,30.23,6.0,ENE,8.1,-,0.02,Rain,Light Rain,60,2013-01-15 20:50:00
3:54 PM,42.1,37.9,85,30.24,8.0,ENE,6.9,-,0.02,Rain,Light Rain,60,2013-01-15 20:54:00
4:54 PM,42.1,37.0,82,30.25,7.0,NE,9.2,-,0.02,Rain,Light Rain,50,2013-01-15 21:54:00
5:43 PM,41.0,37.4,87,30.25,6.0,ENE,5.8,-,0.04,Rain,Light Rain,60,2013-01-15 22:43:00
5:54 PM,41.0,37.0,86,30.25,7.0,NE,6.9,-,0.04,Rain,Light Rain,50,2013-01-15 22:54:00
6:04 PM,41.0,37.4,87,30.23,7.0,NE,6.9,-,0.00,Rain,Light Rain,40,2013-01-15 23:04:00
6:37 PM,41.0,37.4,87,30.24,6.0,Variable,4.6,-,0.01,Rain,Light Rain,0,2013-01-15 23:37:00
6:54 PM,42.1,37.9,85,30.25,4.0,NE,3.5,-,0.03,Rain,Light Rain,40,2013-01-15 23:54:00
7:54 PM,41.0,37.9,89,30.24,4.0,North,3.5,-,0.04,Rain,Light Rain,360,2013-01-16 00:54:00
8:54 PM,42.1,37.9,85,30.23,4.0,North,3.5,-,0.06,Rain,Light Rain,10,2013-01-16 01:54:00
9:54 PM,41.0,37.9,89,30.19,3.0,ENE,9.2,-,0.11,Rain,Rain,60,2013-01-16 02:54:00
10:54 PM,41.0,37.0,86,30.17,6.0,NE,6.9,-,0.03,,Overcast,40,2013-01-16 03:54:00
11:54 PM,41.0,37.0,86,30.14,4.0,NE,8.1,-,0.04,Rain,Light Rain,50,2013-01-16 04:54:00